Powrót do katalogu

KIKU 4

ETS 3

AktywnyNaukaLEO
NORAD 13492·PAYLOAD·🇯🇵 Japan

Wystrzelony Sep 3, 1982 z Tanegashima Space Center

Loading…

Następne Przeloty (najbliższe 24 godziny)

TLE

ŚwieżeSource: Space-Track

Epoka: Sep 14, 2026, 12:23 UTC

1 13492U 82087A   26257.51599291 -.00000094  00000-0  25274-4 0  9995
2 13492  44.6154 275.1767 0011089 181.5443 340.1782 13.71280479204873

Śledź KIKU 4 w czasie rzeczywistym z AllMySat

Download on the App Store